Location: Cutler
(25.6150°N, 80.3110°W)
Time: 23:08:57
(UTC-04:00)

Cosmos 2360 Rocket - Visible Passes

Search period start: 28 March 2015 00:00
Search period end: 07 April 2015 00:00
Orbit: 834 x 845 km, 71.0° (Epoch: 27 March)

Date Brightness Start Highest point End Pass type
(mag) Time Alt. Az. Time Alt. Az. Time Alt. Az.
28 Mar 3.6 21:15:35 10° NW 21:20:47 37° WSW 21:25:54 10° S visible
29 Mar 3.5 20:59:54 10° NW 21:05:10 40° WSW 21:10:23 10° S visible
30 Mar 3.4 20:44:13 10° NW 20:49:34 44° WSW 20:54:52 10° S visible
31 Mar 3.3 20:28:33 10° NNW 20:33:58 47° WSW 20:39:21 10° S visible
01 Apr 3.2 20:12:52 10° NNW 20:18:22 51° WSW 20:23:48 10° S visible
02 Apr 3.1 19:57:13 10° NNW 20:02:45 56° WSW 20:08:15 10° S visible
